Theta_e
331 332 331 332 331 331 331 330 329 329 328 327 327 326 324 323 323 322 322 321 320 317 315 312 311 309 307 307 306 305 304 302 301 299 298 296 294 293 293 293 292 292
331 331 331 331 331 330 330 330 329 329 328 327 326 325 323 322 322 321 321 320 317 313 310 309 308 306 305 303 301 299 298 297 295 294 294 293 293 293 292 292 291 291
330 330 331 330 330 330 330 329 328 328 327 326 324 323 322 321 320 320 319 316 312 309 307 306 305 303 301 299 297 295 295 294 294 293 293 293 292 292 291 291 291 290
330 330 330 331 331 330 329 328 327 326 325 324 322 322 321 320 319 318 315 311 308 307 306 304 302 299 297 295 294 294 294 293 293 293 292 292 291 291 291 290 290 289
329 330 330 330 330 329 328 327 325 324 323 322 321 320 319 318 317 315 311 308 306 305 304 301 299 296 294 294 294 294 294 293 292 292 292 292 291 291 290 289 289 289
329 329 329 329 329 328 327 325 324 323 322 322 321 319 318 316 314 310 307 306 305 303 300 298 295 294 293 293 293 293 293 292 292 291 291 291 290 290 289 289 289 288
328 328 327 327 327 326 326 324 323 322 322 321 319 317 316 313 309 307 305 304 302 299 296 294 294 293 293 293 293 293 292 291 291 290 290 290 289 289 289 288 288 287
326 326 326 325 324 324 323 322 322 322 321 319 316 315 312 309 306 305 303 300 297 295 294 293 293 293 293 292 292 292 291 291 290 290 290 289 289 289 288 288 288 287
324 324 324 323 323 322 321 321 321 320 318 316 313 311 308 306 304 302 299 297 295 294 293 293 293 292 292 291 291 291 291 290 290 290 289 289 288 288 288 288 287 287
323 322 322 321 321 320 320 320 319 317 315 312 310 307 305 303 301 298 296 294 293 293 293 293 292 292 291 290 290 290 290 290 289 289 289 288 288 288 288 287 287 287
320 320 319 319 319 319 319 318 315 313 311 308 306 304 303 300 297 295 294 293 293 293 292 292 291 291 290 290 290 290 290 289 289 288 288 288 288 288 287 287 287 287
318 318 318 318 318 317 316 314 312 309 306 305 304 302 299 296 294 293 293 293 292 292 292 291 290 290 290 290 290 289 289 289 288 288 288 288 287 287 287 287 286 286
316 316 316 316 316 314 312 310 308 305 303 302 301 298 296 294 293 292 292 292 292 291 290 290 290 290 289 289 289 289 288 288 288 288 287 287 287 287 286 286 286 286
314 314 314 313 312 310 309 306 304 302 301 300 297 295 294 293 292 292 291 291 291 290 290 290 289 289 289 288 288 288 288 288 288 287 287 287 287 286 286 286 286 286
312 311 311 310 309 307 305 303 301 300 299 296 294 293 293 292 292 292 291 290 290 289 289 289 288 288 288 288 288 288 288 288 287 287 287 287 286 286 286 286 286 285
309 308 307 306 305 303 301 300 300 298 295 294 293 292 292 291 291 291 290 290 290 289 289 288 288 288 288 288 288 287 287 287 287 287 287 286 286 286 286 285 285 285
306 305 304 303 302 301 300 298 297 295 293 292 292 291 291 291 290 290 290 289 289 289 288 288 288 287 287 287 287 287 287 287 286 286 286 286 286 286 285 285 285 285
303 302 301 300 299 298 297 296 294 293 292 291 291 290 290 289 289 289 289 288 288 288 287 287 287 287 287 287 287 286 286 286 286 286 286 286 285 285 285 285 284 284
300 300 299 298 297 296 295 293 292 291 291 290 290 290 289 289 289 288 288 288 288 287 287 287 287 286 286 286 286 286 286 286 286 286 285 285 285 284 284 284 284 283
298 298 297 295 294 294 293 291 291 290 290 290 289 289 288 288 288 288 288 287 287 287 287 286 286 286 286 286 286 286 286 285 285 285 285 285 284 284 284 283 283 282
297 296 295 293 292 292 291 290 290 290 289 289 289 288 288 288 288 288 287 287 286 286 286 286 286 285 285 285 286 286 285 285 285 285 284 284 284 283 283 283 282 280
296 294 293 292 291 290 290 290 290 289 289 289 288 288 288 287 287 287 287 286 286 286 286 286 285 285 285 285 285 286 285 285 284 284 284 283 283 283 282 282 281 279
294 293 292 291 290 290 289 289 289 289 289 288 288 287 287 287 287 286 286 286 286 285 285 285 285 284 284 285 285 285 285 284 284 283 283 283 282 282 282 281 280 279
293 292 292 291 290 289 289 289 289 289 288 288 288 287 287 287 286 286 285 285 285 285 285 285 285 284 284 284 284 285 284 284 284 283 282 282 282 282 281 281 279 278
292 291 291 290 289 289 289 289 289 288 288 287 287 287 287 286 286 286 285 285 285 285 284 284 284 284 284 284 284 284 284 284 283 283 282 281 281 281 280 279 279 278
291 291 290 289 289 289 289 289 289 288 287 287 287 287 287 286 285 285 285 284 284 284 284 284 284 284 284 283 283 283 283 283 283 282 282 281 280 279 279 279 278 276
Wind_Speed
30 30 29 28 26 23 21 20 20 20 20 20 19 20 19 16 16 15 13 12 12 11 10 8 7 6 6 7 8 9 10 11 12 12 11 12 12 12 12 12 11 11
30 29 28 27 25 22 22 22 23 23 23 23 21 20 19 17 16 14 13 12 11 10 9 8 8 9 10 12 12 12 13 13 13 13 12 12 12 12 12 11 10 10
29 29 28 27 25 23 24 24 25 26 25 24 22 20 18 16 15 14 13 11 10 10 10 11 12 12 13 14 13 13 13 13 13 13 11 12 12 11 11 10 9 8
29 29 28 27 25 24 24 25 26 26 25 23 21 19 17 16 15 14 13 11 11 12 13 13 14 14 14 14 13 13 13 13 13 12 10 11 10 9 9 8 7 7
29 28 28 27 27 26 25 26 27 26 23 21 19 18 17 17 15 14 14 13 13 15 15 16 16 15 15 14 13 12 12 13 13 11 9 9 9 8 7 6 6 6
28 28 28 28 27 27 26 27 27 25 22 20 19 18 18 16 16 15 15 16 16 17 18 17 17 16 15 14 13 13 13 12 11 10 8 8 7 6 6 5 5 6
27 27 27 27 28 28 28 28 27 24 22 21 20 19 18 17 17 16 17 18 19 19 18 18 17 17 16 14 13 13 12 11 10 9 7 7 6 5 5 5 6 8
27 27 27 28 29 29 29 28 26 23 22 21 21 20 18 18 19 19 20 21 21 20 19 18 17 17 16 14 12 12 11 10 9 7 6 5 4 4 5 7 8 9
28 28 29 29 30 29 28 26 24 22 21 21 22 21 20 20 21 23 23 22 21 20 20 19 17 16 15 13 11 10 10 9 7 6 5 4 5 5 7 8 9 10
29 29 30 30 29 27 25 23 23 23 23 23 23 23 23 24 24 24 23 22 22 21 20 18 17 16 15 13 11 10 8 7 6 5 4 5 5 6 8 9 10 11
29 29 29 28 27 25 24 24 25 25 25 24 26 26 27 27 26 25 24 23 22 21 19 18 16 15 14 13 11 9 7 6 5 4 4 5 5 7 8 9 10 11
27 28 27 27 26 26 26 27 27 27 27 27 28 29 29 28 27 25 24 23 22 20 19 18 16 15 13 12 10 8 6 5 4 3 3 4 5 7 8 9 10 10
27 27 27 27 27 28 28 28 28 29 29 30 30 30 30 29 27 26 24 22 21 20 18 17 16 14 12 10 9 7 5 4 3 2 3 4 5 6 7 8 9 9
27 28 28 28 29 29 29 30 30 31 31 31 31 30 30 28 28 26 24 22 21 19 18 16 15 13 11 10 8 6 4 3 2 2 3 4 5 6 7 7 8 9
29 29 29 29 30 31 31 32 32 33 32 32 31 30 29 28 27 25 24 23 21 19 18 16 14 12 11 8 7 5 3 2 2 3 3 5 5 6 7 7 8 9
30 30 30 30 31 32 33 34 34 34 33 33 31 30 29 28 26 25 23 22 21 19 17 16 13 11 9 7 5 4 2 2 2 3 4 5 5 6 7 7 8 9
30 30 31 32 33 34 35 35 35 35 34 33 32 30 29 27 26 25 23 21 20 19 17 15 13 10 8 6 4 3 2 2 3 4 5 5 6 6 7 7 8 9
31 31 32 33 35 35 35 36 35 35 34 33 31 30 28 27 26 25 23 21 20 18 16 14 12 9 7 5 3 3 2 2 3 4 4 5 6 6 7 8 9 9
32 33 34 35 35 36 36 36 35 35 34 32 31 30 28 27 26 24 22 21 19 18 16 13 11 9 7 4 3 2 2 2 3 4 4 5 6 6 8 9 9 10
33 34 35 35 35 36 36 36 35 34 33 32 31 30 28 27 25 23 22 20 18 16 15 13 11 9 6 4 3 2 1 2 3 4 4 5 6 7 8 9 10 11
34 35 35 35 35 36 36 35 35 34 33 32 30 29 28 27 25 23 22 19 17 15 14 12 10 8 6 3 2 1 1 2 3 4 4 5 6 8 8 9 10 11
36 36 36 36 36 36 36 35 35 34 33 32 31 29 27 26 24 22 21 19 17 14 13 12 10 8 6 3 2 0 1 2 3 4 5 6 7 8 8 9 9 10
37 38 38 38 38 37 37 36 35 35 33 32 31 30 27 25 23 21 20 18 16 14 12 11 10 8 6 3 2 1 1 2 3 5 5 6 8 9 9 9 9 10
38 39 39 40 39 39 38 37 36 35 33 32 31 30 28 25 23 21 19 17 15 14 12 10 10 8 6 3 2 2 1 2 4 5 6 7 9 10 10 10 9 10
38 39 40 40 40 39 38 37 36 34 33 31 30 29 27 25 23 21 19 17 15 13 12 10 9 8 6 3 2 2 2 3 4 5 6 7 9 10 10 10 9 10
38 39 39 40 39 38 37 36 35 34 33 31 29 28 26 24 22 20 19 17 15 13 12 10 9 7 6 4 2 1 3 3 4 5 6 8 9 9 9 9 9 10
Wind_Direction
223 223 223 222 221 222 222 220 217 214 213 212 212 210 205 205 210 210 217 230 237 236 229 221 209 185 161 141 127 120 113 105 97 94 90 88 86 82 80 75 68 62
220 220 220 218 215 218 221 219 215 211 208 207 207 205 202 204 206 210 220 226 224 215 200 185 166 148 135 126 119 114 110 104 99 97 96 94 90 86 83 76 68 59
216 216 215 213 213 217 217 214 209 205 201 198 198 200 203 206 208 212 216 214 204 185 168 157 146 136 129 123 119 116 112 108 104 102 102 99 94 89 83 75 66 55
212 212 213 212 213 216 213 207 200 196 194 192 192 197 204 206 208 209 204 194 182 169 158 150 141 134 128 123 122 121 117 114 111 109 108 102 95 91 83 75 65 53
209 209 209 209 209 207 204 198 193 190 189 191 194 199 204 204 202 199 189 178 171 163 154 146 140 135 129 127 127 124 122 121 117 114 111 104 96 90 82 73 62 46
204 204 205 205 202 197 195 192 190 189 192 198 201 201 200 198 193 187 178 170 163 157 151 145 141 136 132 132 134 132 129 126 120 116 110 100 92 85 74 63 46 30
196 198 197 196 192 189 190 189 188 191 198 203 202 197 194 189 181 175 170 163 156 152 148 144 142 139 137 141 141 137 132 125 119 115 106 96 89 75 57 40 27 22
189 189 188 187 185 184 186 187 189 195 201 201 194 189 185 180 174 168 163 158 154 151 148 146 146 144 143 145 143 137 130 123 120 116 107 97 80 52 35 24 13 10
183 183 183 184 183 184 185 188 192 196 196 192 185 179 175 172 169 164 160 158 155 152 151 150 149 147 144 143 140 137 132 128 124 117 101 76 50 31 18 10 5 4
181 181 182 183 183 184 187 190 192 190 186 184 179 172 168 167 165 162 160 159 157 155 154 152 151 148 145 145 143 140 136 129 119 100 74 48 28 16 7 2 2 3
180 180 181 183 184 187 190 189 187 183 179 177 173 168 166 164 163 162 162 161 159 157 155 152 151 150 150 149 146 142 137 125 107 83 54 31 12 6 3 1 4 5
182 183 184 186 187 188 187 184 181 177 174 172 170 167 165 163 162 161 162 162 159 157 156 154 153 154 155 153 148 143 135 119 99 76 38 18 9 6 6 5 7 8
186 186 187 187 186 184 181 179 176 173 170 169 169 167 164 163 162 161 162 162 159 157 157 157 156 157 156 152 147 142 133 123 101 74 33 17 13 10 13 11 7 10
187 186 186 184 183 180 177 174 171 170 169 167 167 167 165 164 163 162 161 160 159 158 158 158 159 157 156 152 148 144 139 133 98 64 36 24 21 14 15 17 11 11
185 184 183 181 180 176 174 172 169 168 168 167 167 167 165 164 165 164 163 161 160 160 158 159 161 158 155 155 152 147 139 117 64 45 37 25 22 18 14 18 18 13
182 181 180 179 177 174 172 170 168 168 167 166 166 166 165 165 165 165 165 164 163 161 160 161 162 159 158 158 153 144 124 82 41 29 30 23 17 19 18 19 21 17
181 179 178 176 174 172 171 169 168 168 167 166 166 166 166 166 166 166 166 166 164 162 162 162 160 158 159 159 151 134 104 64 45 27 21 20 15 16 22 21 20 19
180 178 176 175 173 172 171 169 168 167 167 167 166 166 166 166 167 167 165 165 165 163 162 162 158 157 161 162 148 126 93 50 43 30 19 20 21 20 23 22 19 18
179 177 175 174 173 172 170 169 169 168 168 168 167 166 167 167 167 167 165 164 166 165 162 160 157 156 161 164 147 120 84 49 36 30 28 24 26 29 23 21 19 15
179 177 175 173 172 171 171 170 170 169 168 169 168 168 168 168 168 167 166 165 167 167 163 159 157 156 160 167 152 121 62 44 32 29 35 32 33 37 28 23 22 15
180 177 175 173 173 172 172 171 171 171 170 170 170 170 171 170 169 169 167 166 167 168 164 159 156 155 158 174 175 137 32 31 35 32 39 43 44 40 33 28 24 19
180 178 176 175 174 174 173 173 173 172 172 171 171 171 171 170 170 170 170 168 166 168 168 160 155 154 160 183 211 175 22 21 37 42 44 48 49 43 37 34 27 23
182 180 178 176 176 176 176 175 175 174 174 174 173 171 170 170 171 169 169 171 168 168 170 163 155 155 165 187 230 278 6 21 34 43 44 41 44 44 38 35 33 28
184 183 181 179 178 179 178 177 177 176 175 176 176 174 171 171 172 170 167 170 170 169 170 167 161 159 165 183 234 282 342 29 33 37 40 34 36 40 37 35 35 32
186 185 184 182 181 181 180 179 178 177 176 177 177 176 173 171 173 173 169 168 170 170 170 170 166 162 167 183 220 287 336 21 25 24 30 29 30 34 33 34 34 31
188 187 186 184 183 182 181 181 180 178 177 176 176 176 175 172 173 175 172 170 170 171 171 171 171 170 172 178 185 288 326 358 15 12 17 25 28 28 27 30 32 27